Location: Unspecified
(0.0000°N, 0.0000°E)
Time: 12:47:44
(UTC+00:00)

Cosmos 80 Rocket - Pass Details

Date: 04 October 2021
Orbit: 1361 x 1510 km, 56.1° (Epoch: 16 October)

Event Time Altitude Azimuth Distance (km) Brightness Sun altitude
Rises 18:47:50 0° 327° (NNW) 4,599 8.4 -14.8°
Reaches altitude 10° 18:50:50 10° 327° (NNW) 3,606 7.8 -15.5°
Maximum altitude 18:59:49 81° 240° (WSW) 1,461 5.4 -17.7°
Drops below altitude 10° 19:08:31 10° 153° (SSE) 3,500 7.2 -19.9°
Sets 19:11:23 0° 152° (SSE) 4,459 7.7 -20.6°
